Погода в Благовещенском

Россия / Свердловская область     58°08′21″N   62°57′29″E
темп.,
°C
ветер,
м/с
пор.,
м/с
влажн.,
%
обл.,
%
осадки,
мм/ч
давл.,
гПа
погр.,
м
8 марта, пн
пн823:00−17зсз229760 0.0 100620
02:00−17зсз239855 0.0 100621
05:00−19з239871 0.1 100747
08:00−21зюз239637 0.0 100725
11:00−14юз248724 0.0 1006315
14:00−11ю3586100 0.0 1005557
17:00−10ююв4790100 0.1 1004611
20:00−12ююв3894100 0.1 1003279
9 марта, вт
вт923:00−10юв4995100 0.7 1001372
02:00−8ююз41293100 0.5 999562
05:00−8юз51288100 0.6 1001552
08:00−11юз4119149 0.0 1001327
11:00−8зюз248874 0.0 1001423
14:00−8сз4587100 0.0 1002508
17:00−9сз4787100 0.1 1005729
20:00−15сз239580 0.0 100820
10 марта, ср
ср1023:00−18ссз119941 0.0 101020
02:00−18в129784 0.0 101120
05:00−17в229889 0.1 101026
08:00−17в259799 0.1 1010138
11:00−14всв3492100 0.3 1009296
14:00−11св4692100 0.2 1007428
17:00−12св5893100 0.7 1006529
20:00−14св51094100 0.7 1005519
11 марта, чт
чт1123:00−16ссв51095100 1.5 1005475
02:00−18ссв51095100 0.6 1005423
05:00−20с5996100 0.9 1005397
08:00−21с4997100 0.3 1006346
11:00−20с5894100 0.6 1007410
14:00−16с5884100 0.1 1007684
17:00−18с5890100 0.1 1009710
20:00−20ссз4993100 0.1 1011539
12 марта, пт
пт1223:00−26ссз379673 0.1 1013122
02:00−28сз36980 0.0 1014117
05:00−29сз369815 0.0 1016104
08:00−30сз35986 0.0 101892
11:00−21зсз248714 0.0 1018322
14:00−15зюз247222 0.0 1018687
17:00−14юз368355 0.0 1017701
20:00−16ююз3696100 0.0 101892